This demonstration page uses our WeatherBlox Daily Observations layout. Learn more.

Left ArrowRight Arrow

Hourly Observations for May 28, 2017

Temp ( °F °C ) Dew Point ( °F °C ) Humidity (%) Winds ( mph kmh ) Pressure ( in mb ) Visibility ( mi km ) Precip ( " mm )
12:15 am 00:15 Clear 53 11.9 50 9.8 87 87 W 6 9 30.03 1017 10 16 N/A
12:35 am 00:35 Clear 54 12 50 9.9 87 87 WNW 7 11 30.03 1017 10 16 N/A
12:55 am 00:55 Clear 53 11.5 49 9.5 88 88 WNW 5 7 30.03 1017 10 16 N/A
1:15 am 01:15 Clear 52 11.3 49 9.5 89 89 W 5 7 30.03 1017 10 16 N/A
1:35 am 01:35 Clear 54 12.1 49 9.6 85 85 W 9 15 30.03 1017 10 16 N/A
1:55 am 01:55 Clear 54 12.2 49 9.4 83 83 WNW 9 15 30.03 1017 10 16 N/A
2:15 am 02:15 Clear 53 11.9 48 9.1 83 83 WNW 7 11 30.03 1017 10 16 N/A
2:35 am 02:35 Clear 53 11.7 48 9 84 84 W 9 15 30.03 1017 10 16 N/A
2:55 am 02:55 Clear 53 11.7 48 8.9 83 83 W 8 13 30.03 1017 10 16 N/A
3:15 am 03:15 Clear 55 12.5 48 8.8 78 78 W 8 13 30.00 1016 10 16 N/A
3:35 am 03:35 Clear 55 12.5 48 9.1 80 80 W 12 19 30.00 1016 10 16 N/A
3:55 am 03:55 Clear 54 12.3 48 9 80 80 W 9 15 30.00 1016 10 16 N/A
4:15 am 04:15 Clear 54 12.1 47 8.5 79 79 W 9 15 30.00 1016 10 16 N/A
4:35 am 04:35 Clear 53 11.7 47 8.1 79 79 W 7 11 30.00 1016 10 16 N/A
4:55 am 04:55 Clear 52 10.9 46 7.9 82 82 W 8 13 30.00 1016 10 16 N/A
5:15 am 05:15 Clear 52 11.1 46 7.5 79 79 W 9 15 30.00 1016 10 16 N/A
5:35 am 05:35 Clear 52 11 45 7.1 77 77 W 8 13 30.00 1016 10 16 N/A
5:55 am 05:55 Clear 51 10.8 45 7 78 78 W 9 15 30.00 1016 10 16 N/A
6:15 am 06:15 Sunny 52 11 44 6.5 74 74 W 9 15 30.00 1016 10 16 N/A
6:35 am 06:35 Sunny 52 11 44 6.5 74 74 W 9 15 30.00 1016 10 16 N/A
6:55 am 06:55 Sunny 52 11 44 6.7 75 75 WNW 7 11 30.00 1016 10 16 N/A
7:15 am 07:15 Sunny 53 11.7 44 6.9 73 73 WNW 8 13 30.03 1017 10 16 N/A
7:35 am 07:35 Sunny 55 12.5 45 7.3 71 71 WNW 8 13 30.03 1017 10 16 N/A
7:55 am 07:55 Sunny 56 13.4 45 7.4 67 67 NW 14 22 30.00 1016 10 16 N/A
8:15 am 08:15 Sunny 57 14 47 8.1 68 68 NW 13 20 30.00 1016 10 16 N/A
8:35 am 08:35 Sunny 59 15 47 8.2 64 64 NW 9 15 30.00 1016 10 16 N/A
8:55 am 08:55 Sunny 61 15.9 47 8.1 60 60 NW 13 20 30.00 1016 10 16 N/A
9:15 am 09:15 Sunny 63 17.1 47 8.1 56 56 NW 12 19 29.97 1015 10 16 N/A
9:35 am 09:35 Sunny 65 18.4 47 8.1 51 51 NW 13 20 29.97 1015 10 16 N/A
9:55 am 09:55 Sunny 67 19.2 46 8 48 48 NW 14 22 30.00 1016 10 16 N/A
10:15 am 10:15 Sunny 68 20.2 46 7.5 44 44 NW 12 19 29.97 1015 10 16 N/A
10:35 am 10:35 Sunny 70 21.1 44 6.7 39 39 NW 12 19 29.97 1015 10 16 N/A
10:55 am 10:55 Sunny 72 22 45 7 38 38 NW 13 20 29.97 1015 10 16 N/A
11:15 am 11:15 Sunny 72 22.2 45 7.1 38 38 WNW 12 19 29.97 1015 10 16 N/A
11:35 am 11:35 Sunny 73 22.8 42 5.6 33 33 NW 12 19 29.97 1015 10 16 N/A
11:55 am 11:55 Sunny 74 23.1 37 2.5 26 26 WNW 17 28 29.97 1015 10 16 N/A
12:15 pm 12:15 Sunny 74 23.5 35 1.9 24 24 WNW 12 19 29.97 1015 10 16 N/A
12:35 pm 12:35 Sunny 75 24 38 3.3 26 26 WNW 16 26 29.94 1014 10 16 N/A
12:55 pm 12:55 Sunny 76 24.2 37 2.8 25 25 WNW 16 26 29.94 1014 10 16 N/A
1:15 pm 13:15 Partly Cloudy 76 24.7 37 2.8 24 24 NW 13 20 29.91 1013 10 16 N/A
1:35 pm 13:35 Mostly Cloudy 76 24.7 38 3.4 25 25 NNW 16 26 29.91 1013 10 16 N/A
1:55 pm 13:55 Mostly Cloudy 77 25 38 3.5 25 25 NNW 13 20 29.91 1013 10 16 N/A
2:15 pm 14:15 Partly Cloudy 76 24.5 40 4.6 28 28 NNW 10 17 29.91 1013 10 16 N/A
2:35 pm 14:35 Partly Cloudy 75 24 39 3.8 27 27 NW 10 17 29.91 1013 10 16 N/A
2:55 pm 14:55 Partly Cloudy 76 24.6 40 4.6 27 27 NW 14 22 29.91 1013 10 16 N/A
3:15 pm 15:15 Partly Cloudy 76 24.7 39 4 26 26 NNW 8 13 29.91 1013 10 16 N/A
3:35 pm 15:35 Partly Cloudy 77 24.9 38 3.5 25 25 NW 13 20 29.91 1013 10 16 N/A
3:55 pm 15:55 Mostly Cloudy 74 23.2 38 3.3 27 27 NNW 13 20 29.94 1014 10 16 N/A
4:15 pm 16:15 Cloudy 73 22.9 40 4.5 30 30 N 24 39 29.94 1014 10 16 N/A
4:35 pm 16:35 Partly Cloudy 72 22.1 44 6.8 37 37 NNE 23 37 29.94 1014 7 11 N/A
4:55 pm 16:55 Mostly Cloudy 70 21.1 45 7 40 40 NE 14 22 29.94 1014 10 16 N/A
5:15 pm 17:15 Mostly Cloudy 70 21.2 45 7 40 40 NE 7 11 29.94 1014 10 16 N/A
5:35 pm 17:35 Partly Cloudy 72 22 44 6.5 37 37 N 3 6 29.94 1014 10 16 N/A
5:55 pm 17:55 Partly Cloudy 74 23.1 42 5.5 32 32 WNW 5 7 29.94 1014 10 16 N/A
6:15 pm 18:15 Sunny 74 23.2 42 5.7 32 32 W 6 9 29.88 1012 10 16 N/A
6:35 pm 18:35 Sunny 74 23.3 43 5.9 33 33 W 5 7 29.88 1012 10 16 N/A
6:55 pm 18:55 Sunny 74 23.6 42 5.7 32 32 WNW 3 6 29.88 1012 10 16 N/A
7:15 pm 19:15 Sunny 74 23.6 42 5.5 31 31 WNW 3 6 29.88 1012 10 16 N/A
7:35 pm 19:35 Sunny 74 23.5 42 5.6 32 32 NW 7 11 29.88 1012 10 16 N/A
7:55 pm 19:55 Sunny 74 23.2 40 4.6 30 30 WNW 6 9 29.88 1012 10 16 N/A
8:15 pm 20:15 Sunny 72 22.3 41 4.9 32 32 W 7 11 29.91 1013 10 16 N/A
8:35 pm 20:35 Sunny 69 20.8 43 6.3 39 39 W 7 11 29.91 1013 10 16 N/A
8:55 pm 20:55 Sunny 67 19.6 44 6.7 43 43 W 5 7 29.91 1013 10 16 N/A
9:15 pm 21:15 Clear 68 20.2 44 6.4 41 41 WNW 5 7 29.91 1013 10 16 N/A
9:35 pm 21:35 Mostly Cloudy 64 17.8 49 9.7 59 59 NW 15 24 29.97 1015 10 16 0.01 0.25
9:55 pm 21:55 Cloudy 63 17.2 50 10 63 63 NW 7 11 29.97 1015 10 16 0.01 0.25
10:15 pm 22:15 Partly Cloudy 63 17.2 49 9.5 61 61 N 7 11 29.97 1015 10 16 N/A
10:35 pm 22:35 Partly Cloudy 63 17 50 9.8 63 63 NNW 8 13 29.97 1015 10 16 N/A
10:55 pm 22:55 Mostly Cloudy with Light Rain 61 16.3 51 10.8 70 70 WNW 13 20 30.03 1017 10 16 N/A
11:15 pm 23:15 Mostly Cloudy 63 17.4 46 7.9 54 54 NW 7 11 29.97 1015 10 16 N/A
11:35 pm 23:35 Partly Cloudy 64 17.5 45 7.4 52 52 NNW 16 26 29.97 1015 10 16 N/A
11:55 pm 23:55 Clear 61 16 47 8.6 62 62 NNW 9 15 30.00 1016 10 16 N/A

Powered by AerisWeather